Dewpoint
55 54 52 47 36 38 26 22 38 34 28 30 34 32 29 41 42 34 54 56 65 70 73 72 73 73 72 72 72 72 71 72 71 70 69 67 66 65 65 64 65 65 66 65 68 68 68 67 67
55 52 46 45 31 15 19 37 33 27 25 22 31 34 34 46 53 50 53 58 69 73 72 72 72 72 72 71 70 72 71 72 72 70 70 67 65 65 66 66 67 69 67 67 68 68 68 67 65
49 47 42 37 36 19 15 31 28 27 24 21 23 34 39 47 50 47 51 58 67 68 71 71 71 72 72 72 71 69 71 72 72 71 70 68 65 65 66 67 68 68 67 68 68 68 68 67 66
44 43 41 37 30 35 34 31 30 24 24 22 20 34 44 47 48 48 53 57 65 66 67 69 70 70 70 71 71 71 71 71 71 71 71 68 66 67 68 69 68 69 69 68 68 68 67 67 67
43 39 34 34 33 36 34 33 26 23 24 24 20 20 42 46 48 51 54 54 59 63 66 68 69 70 69 68 69 70 72 71 71 71 71 70 67 68 69 70 69 70 69 68 68 67 66 66 66
39 37 29 26 30 29 28 26 24 24 24 22 21 22 40 47 47 49 55 54 55 56 61 65 67 67 67 69 68 68 71 72 72 71 71 70 69 68 70 70 69 70 69 68 68 66 65 64 65
37 34 30 29 29 27 26 26 23 24 23 22 24 21 40 39 47 49 54 53 52 52 51 54 61 64 66 66 68 67 68 69 71 70 70 70 69 70 70 70 69 69 69 68 68 67 65 63 64
39 37 34 31 28 27 27 27 27 27 24 28 28 22 23 31 44 44 53 52 50 50 50 49 51 57 63 65 66 67 68 67 69 70 70 70 69 71 71 70 69 68 67 66 67 67 65 64 65
36 34 32 31 30 29 29 29 30 30 27 29 28 28 29 36 38 40 44 46 44 48 49 49 49 51 59 65 64 66 68 68 67 69 69 69 69 70 70 69 68 68 67 67 67 66 66 64 65
35 32 31 32 32 30 31 31 32 30 29 28 28 30 32 34 34 34 36 38 41 44 47 49 49 52 57 61 63 65 66 68 68 68 69 69 69 69 69 69 68 67 66 67 66 66 65 61 62
32 31 32 32 32 33 32 30 32 29 28 28 27 28 29 31 31 33 33 34 38 44 48 49 49 52 55 59 61 63 64 66 68 68 69 69 68 68 68 68 68 66 64 66 65 65 62 59 59
31 32 32 32 32 32 31 32 31 31 31 31 30 30 31 30 30 30 31 32 32 40 45 48 50 51 52 58 61 61 63 63 66 68 68 68 68 67 67 67 66 65 64 64 63 61 59 57 56
29 29 29 29 29 28 29 29 30 29 30 29 29 29 30 30 30 31 32 34 35 34 39 48 51 51 52 55 57 59 62 62 64 67 68 68 67 67 67 66 66 65 64 64 62 58 57 56 55
30 29 28 28 28 28 27 27 27 27 28 28 28 28 28 29 29 29 31 31 32 35 36 44 51 52 53 53 55 55 59 62 63 66 68 68 67 67 66 66 65 64 64 63 59 56 55 54 53
30 26 26 25 26 26 27 23 24 26 27 26 27 26 26 27 28 28 30 30 31 32 37 40 49 52 53 53 54 57 58 61 62 63 67 68 67 66 66 65 65 64 63 61 57 54 53 52 51
26 26 20 22 25 25 25 19 20 22 24 24 25 26 25 25 25 26 28 30 33 35 36 39 47 52 53 53 55 57 60 61 62 62 66 67 67 67 66 65 64 64 61 58 54 53 52 51 50
24 20 21 23 26 25 24 21 22 23 23 23 22 20 22 23 23 24 26 29 32 36 36 37 46 49 52 53 56 57 59 59 61 61 62 67 66 67 66 65 64 63 59 54 52 52 51 50 50
18 19 20 21 22 23 24 23 23 23 24 22 21 20 19 20 21 22 23 26 30 33 35 38 45 50 52 53 55 57 58 58 59 61 62 64 66 66 65 64 63 62 59 52 51 51 54 52 51
23 23 23 24 26 25 24 23 21 20 20 20 20 21 20 19 20 20 22 22 24 27 31 36 42 49 53 53 53 54 54 56 58 60 61 61 64 66 65 64 63 62 59 52 50 53 53 53 54
26 25 23 23 23 22 20 19 20 21 21 21 21 21 21 21 21 21 22 21 22 24 29 36 43 49 52 53 53 53 53 56 57 59 60 60 60 60 63 64 63 62 59 53 48 53 54 54 55
23 22 20 19 21 23 21 18 17 18 19 20 22 23 22 22 21 21 21 21 21 23 29 38 45 49 52 53 54 54 56 57 58 57 59 60 60 60 59 64 63 62 59 55 47 55 54 53 54
20 22 22 22 22 18 21 14 16 16 16 16 19 30 29 25 22 23 22 21 20 21 32 39 46 49 52 53 52 52 52 52 55 57 57 58 59 59 59 63 63 61 59 56 49 55 55 54 53
23 26 27 26 24 23 18 18 16 17 16 26 30 34 34 33 29 20 21 21 21 23 33 40 46 49 51 52 52 52 52 53 53 56 56 57 58 58 59 64 62 61 59 56 51 55 55 55 54
25 26 23 22 22 15 15 16 15 16 23 31 34 35 35 35 36 36 36 36 30 28 37 44 48 50 51 53 54 53 53 54 53 55 56 56 56 59 58 62 62 60 59 56 53 56 56 56 55
28 23 15 11 11 10 14 18 16 19 34 35 35 35 36 36 37 37 37 32 26 32 42 46 49 50 52 53 53 54 54 55 55 55 55 55 55 59 58 60 60 59 58 57 55 56 56 56 56
28 25 18 13 11 13 18 17 25 34 33 33 35 37 37 40 40 40 32 28 31 35 42 47 49 50 52 53 54 55 55 55 55 56 56 55 55 61 60 60 59 58 58 57 56 56 57 57 57
28 23 27 21 16 15 15 19 27 32 31 32 33 35 38 42 43 34 29 33 35 41 44 47 50 51 52 52 54 55 56 56 55 56 57 57 57 61 62 60 58 57 57 57 56 56 57 57 57
32 34 23 22 15 14 17 21 26 29 30 32 34 39 39 42 45 46 41 41 45 47 49 50 51 50 50 51 53 54 56 57 57 59 57 57 59 61 61 61 59 58 58 57 56 56 57 57 58
31 29 29 27 24 20 18 20 33 30 30 31 34 41 43 42 45 46 47 48 48 48 48 49 49 48 49 51 53 54 56 56 56 57 60 60 60 61 61 60 60 59 58 57 56 56 57 57 58
33 31 31 25 22 26 25 23 36 32 33 33 37 40 43 46 46 46 48 48 48 48 49 49 48 48 51 51 54 55 56 56 56 55 58 60 59 60 60 60 60 59 58 57 57 57 57 57 57
Wind_Speed
4 5 2 5 5 3 4 6 2 4 1 3 6 3 5 3 2 3 9 10 15 10 13 17 18 18 18 16 16 18 17 19 20 20 21 20 20 21 21 21 21 19 19 17 17 18 22 21 20
4 2 6 4 4 6 6 4 4 1 8 12 5 3 2 3 2 2 6 15 9 9 10 13 16 16 18 18 15 17 17 18 20 20 20 21 21 21 22 21 20 19 19 17 20 21 22 22 21
2 4 4 8 6 9 4 3 4 6 6 8 6 4 3 3 1 2 5 8 9 13 6 6 16 16 18 20 20 16 18 16 19 20 20 20 21 21 21 19 18 19 16 19 21 22 20 21 21
3 4 5 4 12 6 4 6 5 8 4 6 4 3 2 1 1 2 5 8 12 10 8 5 4 16 17 19 21 20 21 16 17 19 19 19 20 20 19 17 19 18 18 20 21 21 18 18 19
5 4 2 2 6 4 5 4 3 6 5 7 7 1 3 5 9 7 8 10 14 12 8 8 6 8 15 17 20 21 21 20 18 18 20 20 19 18 15 17 17 20 20 20 20 20 17 16 16
4 4 3 12 6 3 5 3 2 2 3 7 4 0 3 2 4 4 5 9 9 12 11 11 10 8 5 4 18 20 22 22 20 19 20 19 19 18 16 20 20 20 20 20 20 19 17 16 18
5 4 4 4 3 4 4 2 2 2 2 2 4 3 3 4 3 4 6 8 10 10 12 12 11 9 7 5 2 18 20 23 21 19 20 21 19 18 21 21 21 20 20 20 21 18 16 15 17
4 2 3 6 8 6 1 4 3 7 1 7 3 3 4 3 1 3 2 4 6 7 8 9 9 9 7 6 5 5 13 21 22 20 20 22 21 20 21 21 21 20 17 17 17 17 15 14 15
3 3 5 4 7 4 3 6 4 6 3 6 2 2 4 1 4 2 3 2 2 3 3 3 6 6 6 6 5 2 5 16 19 21 21 21 16 19 20 18 21 20 18 14 15 16 15 14 17
3 4 7 4 2 4 11 6 7 6 12 8 13 8 9 5 3 2 4 5 8 5 3 2 2 3 4 4 4 3 2 4 14 15 16 15 16 17 19 21 22 21 20 15 13 14 16 15 14
2 5 3 4 7 10 14 21 6 10 15 12 12 15 16 12 16 9 9 10 6 10 7 6 5 4 4 4 4 3 5 7 6 15 15 14 14 15 17 17 17 16 19 13 11 11 13 15 16
5 5 6 4 10 12 15 10 16 17 21 16 19 17 12 19 21 21 17 15 17 9 12 11 10 9 7 5 5 4 6 5 7 13 17 15 14 15 14 18 18 17 15 15 13 12 14 15 13
6 6 8 11 12 14 13 17 22 28 16 13 17 20 21 21 21 20 20 17 15 21 13 13 12 12 11 10 8 7 8 8 8 10 15 17 17 18 17 16 18 17 15 16 15 15 15 15 12
6 10 15 9 15 12 19 25 13 19 6 13 17 21 23 24 24 23 21 23 23 21 21 14 16 16 13 12 10 11 8 10 6 10 15 21 18 20 20 17 16 16 16 16 17 18 16 16 14
7 15 16 11 12 8 10 27 30 28 22 24 22 24 24 23 22 25 23 24 23 26 21 19 19 18 16 16 14 12 12 10 11 9 15 21 23 21 22 20 19 16 14 17 15 13 11 14 11
6 4 7 5 8 4 1 39 23 15 11 21 19 19 21 21 23 22 22 23 23 22 23 20 14 16 18 16 14 13 12 11 11 7 12 19 26 25 23 21 19 16 14 16 16 17 16 15 13
3 10 8 10 4 5 4 29 0 6 18 28 30 28 25 24 23 20 21 21 23 22 23 23 17 18 17 15 13 14 13 12 14 12 5 18 30 25 22 21 20 19 15 16 18 15 15 16 13
6 13 10 15 5 19 23 44 45 28 25 30 29 31 29 26 28 23 24 23 21 19 20 20 17 20 19 15 9 8 9 12 13 13 11 9 23 26 23 21 21 22 17 16 16 18 11 11 15
11 14 22 26 15 16 28 40 45 32 25 31 34 32 33 33 30 24 24 25 21 22 20 19 18 19 17 12 12 9 15 15 13 16 13 9 8 18 21 20 21 24 23 21 21 13 20 11 13
15 20 27 21 12 9 25 43 50 37 39 34 36 33 32 33 29 28 24 24 25 24 23 21 20 20 22 19 16 10 12 16 16 16 16 15 14 15 11 23 23 25 24 21 22 21 13 11 17
19 16 19 22 17 15 20 28 18 4 13 19 21 23 27 31 31 31 26 24 25 26 25 22 22 21 21 22 14 11 8 9 13 18 18 17 18 16 12 22 24 26 24 25 26 22 23 18 18
15 5 12 14 16 11 9 17 26 12 11 12 12 15 19 24 27 28 28 26 24 26 23 22 21 22 22 22 18 19 19 19 17 16 19 20 19 23 22 27 27 26 24 25 27 23 22 20 23
9 10 16 15 17 13 6 9 14 16 18 10 20 20 21 21 21 22 22 23 24 22 22 23 22 21 22 22 22 20 20 19 18 18 20 22 24 26 24 22 28 28 25 25 27 25 24 21 21
15 13 7 2 2 7 6 10 19 11 12 21 24 28 23 21 22 23 24 23 25 23 23 20 19 20 20 21 22 23 22 22 22 21 23 25 21 23 30 35 27 28 27 27 27 25 25 22 21
2 3 7 4 3 9 2 8 23 23 20 30 33 33 28 23 22 23 23 22 21 24 20 18 19 19 20 21 21 22 24 25 25 23 22 26 26 26 32 38 36 31 29 26 26 25 23 21 22
7 2 1 6 6 15 6 10 10 8 29 25 21 24 23 24 19 18 16 16 18 19 19 17 17 20 19 20 21 21 25 23 21 19 22 25 27 22 27 36 35 32 29 25 24 23 22 20 21
1 3 4 4 3 6 5 9 7 24 37 36 32 25 20 18 13 6 7 12 15 15 17 20 18 18 15 15 18 21 21 22 18 21 26 28 29 21 12 27 27 27 26 26 26 24 23 21 20
5 4 2 2 7 8 8 7 23 39 40 39 34 16 14 13 9 4 3 7 7 9 12 14 12 9 8 11 12 21 17 19 21 23 27 29 24 27 30 21 23 25 24 25 25 23 22 23 18
4 5 4 3 5 5 10 7 14 31 31 32 31 21 12 12 10 7 2 5 10 11 9 11 11 12 11 11 14 19 21 19 18 9 7 12 17 23 25 24 23 24 26 25 25 22 23 25 20
3 6 5 4 8 8 6 8 18 28 26 27 29 24 18 6 9 7 7 8 9 9 10 12 16 17 15 13 22 13 14 15 16 15 9 9 14 16 21 22 22 22 22 22 24 21 20 24 23
Wind_Direction
357 335 64 53 139 77 232 237 277 25 262 259 305 240 190 80 171 212 313 329 326 171 164 161 159 157 156 152 145 138 140 139 138 140 138 136 136 136 138 140 142 146 138 135 126 122 118 116 110
344 59 57 97 130 184 228 236 172 74 318 309 291 297 126 99 44 334 360 343 358 130 142 157 164 164 159 155 158 146 147 147 144 144 141 139 138 138 139 141 142 135 137 137 130 125 118 115 113
27 37 101 147 160 206 199 138 94 325 331 16 3 43 33 92 99 100 299 334 45 57 88 128 174 174 168 162 164 169 156 158 151 147 144 142 142 144 146 147 140 135 143 136 127 120 117 118 116
69 39 45 165 207 236 191 162 357 353 5 15 352 55 40 286 297 86 352 352 90 76 67 60 184 188 190 173 171 171 159 168 160 153 148 146 148 150 154 151 141 134 128 129 126 123 121 120 130
49 66 136 200 229 252 233 263 338 334 308 330 351 358 70 57 69 50 19 25 67 73 76 85 72 202 203 205 193 178 166 171 170 167 156 151 154 156 156 146 145 134 132 133 132 128 120 113 131
76 90 165 224 229 241 274 237 280 16 342 326 324 167 126 112 111 115 72 60 59 72 65 71 77 71 51 274 210 203 179 175 176 177 161 157 158 160 149 144 145 143 140 139 139 130 125 119 125
112 121 208 191 234 271 245 340 86 359 332 33 312 180 119 18 285 104 98 84 68 55 63 63 65 69 74 27 283 219 207 187 181 180 164 161 163 157 150 148 149 150 148 143 139 132 130 124 137
107 117 200 212 207 240 247 0 54 45 33 324 359 199 156 27 10 332 64 72 53 55 63 58 57 63 70 73 69 21 244 218 196 183 173 165 166 156 154 152 153 153 152 142 135 139 139 131 145
118 218 226 217 177 235 28 19 355 326 285 337 277 273 150 100 71 182 213 276 329 3 19 58 78 66 62 72 51 101 287 231 219 194 182 169 166 160 158 158 157 151 147 155 154 152 143 132 143
179 207 212 213 228 292 303 309 317 294 289 274 289 268 278 264 265 256 250 266 213 202 225 266 139 118 109 111 111 150 186 271 210 203 179 169 166 164 161 161 158 152 150 160 169 159 141 137 142
204 238 238 253 279 291 292 296 260 270 267 237 262 282 285 284 293 278 281 283 238 202 190 224 241 181 170 178 171 169 167 180 235 193 178 173 167 165 160 157 156 158 157 161 169 160 146 145 152
274 253 261 275 290 291 285 290 277 258 258 262 260 265 274 282 283 288 282 273 285 220 213 218 214 198 191 193 200 208 206 189 193 193 176 171 173 169 174 166 162 159 165 164 170 173 158 154 155
258 299 314 309 307 294 288 270 269 266 261 255 261 262 260 266 267 273 275 275 265 276 250 204 210 207 188 189 203 221 225 219 198 190 185 180 176 176 172 178 167 164 160 166 174 179 168 163 160
312 303 299 294 290 278 278 278 259 263 266 256 253 259 262 259 263 266 265 269 270 260 261 227 204 215 193 191 202 222 225 227 233 199 189 189 183 176 174 174 176 172 170 168 174 181 176 169 168
300 304 309 280 273 267 277 274 253 267 259 255 257 259 261 251 253 257 255 255 254 264 251 245 212 208 203 194 203 214 227 218 229 241 202 199 185 180 177 175 176 178 174 165 169 173 177 173 176
318 300 298 309 341 284 107 275 275 271 266 278 277 271 269 267 258 258 255 253 250 247 257 254 229 197 205 199 203 207 216 223 213 217 213 195 198 181 176 174 178 174 174 167 174 178 181 184 184
353 282 288 309 322 301 233 278 90 313 306 294 287 277 266 263 259 256 257 255 254 238 243 248 240 228 220 209 199 203 204 223 236 234 248 200 195 180 173 174 177 167 175 174 175 182 182 186 191
296 295 277 275 283 299 285 277 275 277 273 267 264 264 263 258 253 251 249 252 248 246 242 241 229 220 212 210 201 205 210 220 235 232 247 203 199 175 171 177 178 167 175 179 178 181 177 187 186
277 277 278 276 271 280 276 273 282 282 269 263 259 253 254 253 252 246 240 246 239 243 245 242 231 220 201 191 196 218 221 225 223 231 222 227 132 154 174 178 177 176 179 186 179 172 184 188 168
266 273 277 287 281 264 277 278 282 282 265 261 260 260 256 257 253 248 238 232 238 237 237 238 225 212 202 198 198 200 203 218 217 220 211 203 169 158 199 186 184 186 180 182 184 183 173 185 174
262 261 278 279 308 268 286 286 278 290 260 266 256 259 266 260 256 252 244 233 230 227 228 227 219 208 203 199 192 196 211 220 209 218 216 208 218 214 211 201 186 189 184 185 184 185 181 183 190
285 284 267 280 316 304 41 294 314 322 318 300 305 298 283 280 267 253 244 238 231 229 218 220 216 208 200 199 196 199 205 215 215 212 216 214 211 209 207 212 191 191 189 185 188 186 186 180 187
259 274 284 289 274 299 260 236 276 318 319 304 295 314 290 271 272 256 242 240 239 226 217 216 214 210 201 197 196 202 211 218 220 215 210 211 217 216 198 208 186 192 190 188 187 185 187 188 182
272 301 332 8 313 265 235 203 285 304 304 304 300 302 289 274 264 255 254 254 238 215 215 210 204 207 199 193 198 206 213 218 223 215 210 217 226 214 195 193 195 193 193 188 188 188 186 184 184
69 15 317 327 334 254 191 202 260 285 320 311 307 304 299 287 277 265 256 247 210 205 202 198 194 203 198 196 204 212 219 221 221 218 217 222 222 229 202 196 192 191 191 187 183 184 185 182 183
311 153 262 297 291 294 186 238 272 315 322 314 316 312 291 300 297 269 231 190 193 201 202 196 190 203 200 201 208 215 225 218 220 224 235 223 213 211 205 193 188 182 184 180 180 183 183 183 187
333 235 187 265 239 289 248 280 295 337 333 336 330 317 305 322 305 280 236 194 191 197 192 191 192 201 197 207 213 218 225 219 221 224 239 233 198 177 175 172 170 176 177 178 178 181 183 183 184
239 311 326 232 307 303 293 309 329 339 336 331 329 318 299 306 307 356 162 182 185 171 172 171 169 182 213 237 248 234 217 219 234 234 217 205 181 165 169 182 176 172 174 180 179 182 180 182 188
332 334 239 238 246 302 309 336 331 331 326 324 328 350 312 288 291 290 64 128 149 149 178 207 228 246 236 234 261 221 202 213 246 283 163 163 148 163 168 169 171 172 178 180 179 182 180 186 187
271 317 305 322 314 291 276 302 337 331 335 337 346 347 358 23 244 225 197 190 215 196 206 242 253 248 221 220 217 199 203 225 233 236 206 187 169 156 160 165 167 170 179 179 176 180 181 187 188